Home > Weather > Eureka > Past weeks

Flag for Canada Past Weather in Eureka, Nunavut, Canada — Yesterday and Last 2 Weeks

Now
39 °F

Broken clouds.


Feels Like: 32 °F
Forecast: 36 / 41 °F
Wind: 12 mph from Southeast

Location: Eureka

Current Time: Jun 28, 2016 at 6:43:47 AM

Latest Report: Jun 28, 2016 at 6:00 AM


Visibility: 15 mi

Pressure: 29.79 "Hg

Humidity: 81%

Dew Point: 34 °F

Location of EurekaLocation

Past Weather in Eureka — Graph

°F

Eureka Temperature Yesterday

Maximum temperature yesterday: 45 °F (at 1:00 PM)
Minimum temperature yesterday: 36 °F (at 7:00 AM)
Average temperature yesterday: 41 °F

High & Low Weather Summary for the Past Weeks

 TemperatureHumidityPressure
High61 °F (Jun 17, 1:00 PM)100% (Jun 27, 6:00 AM)30.10 "Hg (Jun 27, 6:00 AM)
Low32 °F (Jun 22, 6:00 AM)34% (Jun 17, 5:00 PM)29.42 "Hg (Jun 22, 12:00 PM)
Average43 °F69%29.73 "Hg
* Reported Jun 13 5:00 AM — Jun 28 5:00 AM, Eureka, Weather by CustomWeather, © 2016

Note: Actual official high and low records may vary slightly from our data, if they occured in-between our weather recording intervals... More about our weather records

Advertising

Eureka Weather History for the Previous 24 Hours

Scroll right to see more
 ConditionsComfort  
Time TempWeatherWind HumidityBarometerVisibility
5:00 AM
Tue, Jun 28
41 °FPartly sunny.16 mph76%29.81 "Hg15 mi
4:00 AM41 °FPartly sunny.20 mph76%29.82 "Hg15 mi
3:00 AM41 °FPartly sunny.16 mph81%29.83 "Hg15 mi
2:00 AM41 °FScattered clouds.15 mph81%29.84 "Hg15 mi
1:00 AM41 °FScattered clouds.10 mph81%29.85 "Hg15 mi
10:00 PM
Mon, Jun 27
43 °FMostly cloudy.3 mph76%29.87 "Hg15 mi
9:00 PM45 °FMostly cloudy.9 mph76%29.88 "Hg15 mi
8:00 PM43 °FPartly sunny.8 mph76%29.88 "Hg15 mi
7:00 PM43 °FBroken clouds.13 mph71%29.88 "Hg15 mi
6:00 PM43 °FPartly sunny.15 mph71%29.88 "Hg15 mi
5:00 PM43 °FBroken clouds.13 mph76%29.87 "Hg15 mi
4:00 PM43 °FPartly sunny.16 mph76%29.86 "Hg15 mi
3:00 PM43 °FPartly sunny.10 mph76%29.85 "Hg15 mi
2:00 PM41 °FPartly sunny.8 mph81%29.84 "Hg15 mi
1:00 PM45 °FPartly sunny.10 mph76%29.83 "Hg15 mi
12:00 PM43 °FBroken clouds.16 mph76%29.83 "Hg15 mi
11:00 AM41 °FMostly cloudy.6 mph87%29.81 "Hg15 mi
10:00 AM37 °FLight rain. More clouds than sun.12 mph93%29.81 "Hg10 mi
9:00 AM41 °FRain. Fog.13 mph87%29.79 "Hg6 mi
8:00 AM37 °FLight rain. Fog.6 mph93%29.78 "Hg4 mi
7:00 AM36 °FLight rain. Cloudy.3 mph93%29.76 "Hg8 mi
6:00 AM39 °FLight rain. Low clouds.2 mph100%29.74 "Hg8 mi
Weather by CustomWeather, © 2016

See weather overviewHow to use our weather pages